EW5171 Weather Reports


time (UTC)temp
C
wind
direction
speed
KPH
gust
KPH
rain 1hr
cm
rain 24hr
cm
rain mn
cm
humidity
%
barometer
mb
20260902014515 12 198 1.6 6.4 0.00 0.15 0.03 96 1013.8
20260902014012 12 188 0.0 6.4 0.00 0.15 0.03 95 1013.8
20260902013511 12 245 1.6 6.4 0.00 0.15 0.03 95 1013.8
20260902013013 12 192 0.0 3.2 0.00 0.15 0.03 95 1013.9
20260902012511 12 192 0.0 3.2 0.00 0.15 0.03 95 1013.8
20260902012010 12 214 0.0 3.2 0.00 0.15 0.03 95 1013.9
20260902011516 12 214 0.0 3.2 0.00 0.15 0.03 95 1013.9
20260902011010 12 261 0.0 4.8 0.00 0.15 0.03 95 1013.9
20260902010510 11 281 0.0 4.8 0.00 0.15 0.03 95 1013.9
20260902010009 11 232 0.0 3.2 0.00 0.15 0.03 95 1014.0
20260902005509 11 232 0.0 3.2 0.00 0.15 0.03 95 1014.0
20260902005009 11 232 0.0 4.8 0.00 0.15 0.03 95 1014.0
20260902004508 11 223 0.0 1.6 0.00 0.15 0.03 94 1014.0
20260902004007 11 219 0.0 4.8 0.00 0.15 0.03 94 1014.1
20260902003510 11 219 0.0 4.8 0.00 0.15 0.03 94 1014.1
20260902003007 11 207 0.0 1.6 0.00 0.15 0.03 94 1014.1
20260902002509 11 186 0.0 0.0 0.00 0.15 0.03 93 1014.1
20260902002007 11 186 0.0 0.0 0.00 0.15 0.03 93 1014.2
20260902001506 11 186 0.0 0.0 0.00 0.15 0.03 93 1014.2
20260902001003 11 186 0.0 0.0 0.00 0.15 0.03 93 1014.2
20260902000503 11 186 0.0 0.0 0.00 0.15 0.03 93 1014.2
20260902000007 11 186 0.0 0.0 0.00 0.15 0.03 93 1014.2
20260901235501 11 186 0.0 0.0 0.00 0.18 0.03 93 1014.3
20260901235000 11 186 0.0 0.0 0.00 0.18 0.03 92 1014.3
20260901234608 11 186 0.0 0.0 0.00 0.18 0.03 92 1014.3
20260901234104 11 186 0.0 0.0 0.00 0.18 0.03 92 1014.2
20260901233558 12 186 0.0 1.6 0.00 0.18 0.03 92 1014.3
20260901233057 12 186 0.0 1.6 0.00 0.18 0.03 92 1014.3
20260901232557 12 186 0.0 3.2 0.03 0.18 0.03 93 1014.3
20260901232059 12 186 0.0 3.2 0.03 0.18 0.03 92 1014.4
20260901231605 12 269 0.0 3.2 0.03 0.18 0.03 92 1014.4
20260901231054 12 113 0.0 4.8 0.03 0.18 0.03 92 1014.5
20260901230555 12 246 0.0 3.2 0.03 0.18 0.03 92 1014.5
20260901230106 12 274 0.0 3.2 0.03 0.18 0.03 92 1014.5
20260901225553 12 247 0.0 4.8 0.03 0.18 0.03 92 1014.5
20260901225053 12 188 1.6 4.8 0.03 0.18 0.03 92 1014.4
20260901224554 12 276 0.0 6.4 0.03 0.18 0.03 91 1014.4
20260901224058 12 286 0.0 9.7 0.03 0.18 0.03 92 1014.5
20260901223556 12 313 1.6 4.8 0.03 0.18 0.03 91 1014.6
20260901223051 12 298 0.0 6.4 0.03 0.18 0.03 91 1014.5
20260901222551 12 320 1.6 8.0 0.00 0.15 0.00 91 1014.5
20260901222050 12 218 0.0 8.0 0.00 0.15 0.00 91 1014.4
20260901221604 13 307 1.6 3.2 0.00 0.15 0.00 91 1014.4
20260901221048 13 206 0.0 6.4 0.00 0.15 0.00 91 1014.3
20260901220548 13 272 0.0 11.3 0.00 0.15 0.00 91 1014.3
20260901220045 13 225 1.6 11.3 0.00 0.15 0.00 90 1014.3
20260901215545 13 279 1.6 9.7 0.00 0.15 0.15 91 1014.3
20260901215045 13 286 1.6 12.9 0.00 0.15 0.15 91 1014.3
20260901214544 13 278 4.8 12.9 0.00 0.15 0.15 91 1014.4
20260901214045 13 261 4.8 12.9 0.00 0.15 0.15 91 1014.4
20260901213546 13 322 1.6 14.5 0.00 0.15 0.15 91 1014.4
20260901213048 13 182 4.8 16.1 0.00 0.15 0.15 91 1014.4
20260901212643 13 240 1.6 16.1 0.00 0.15 0.15 91 1014.4
20260901212043 13 273 1.6 4.8 0.00 0.15 0.15 91 1014.3
20260901211543 13 177 0.0 6.4 0.00 0.15 0.15 91 1014.3
20260901211042 13 296 0.0 6.4 0.00 0.15 0.15 91 1014.3
20260901210545 13 286 1.6 8.0 0.00 0.15 0.15 91 1014.2
20260901210042 13 355 1.6 8.0 0.00 0.15 0.15 91 1014.2
20260901205543 13 308 0.0 11.3 0.00 0.15 0.15 91 1014.2
20260901205040 13 213 3.2 11.3 0.00 0.15 0.15 92 1014.2
20260901204541 13 279 1.6 6.4 0.00 0.15 0.15 91 1014.1
20260901204043 13 223 1.6 4.8 0.00 0.15 0.15 91 1014.1
20260901203543 13 299 0.0 4.8 0.00 0.15 0.15 91 1014.1
20260901203045 13 292 0.0 4.8 0.00 0.15 0.15 91 1014.1
20260901202538 13 288 0.0 3.2 0.00 0.15 0.15 90 1014.0
20260901202041 13 297 0.0 3.2 0.00 0.15 0.15 90 1014.0
20260901201545 13 169 0.0 3.2 0.00 0.15 0.15 90 1014.0
20260901201039 13 261 0.0 1.6 0.00 0.15 0.15 89 1014.0
20260901200537 13 261 0.0 1.6 0.00 0.15 0.15 89 1014.0
20260901200037 13 261 0.0 3.2 0.00 0.15 0.15 89 1014.0
20260901195537 14 261 0.0 3.2 0.00 0.15 0.15 89 1013.9
20260901195039 14 265 0.0 4.8 0.00 0.15 0.15 89 1013.9
20260901194536 14 136 1.6 4.8 0.00 0.15 0.15 88 1013.9
20260901194036 14 222 0.0 4.8 0.00 0.15 0.15 88 1013.9
20260901193536 14 222 0.0 4.8 0.00 0.15 0.15 88 1013.9
20260901193035 14 253 0.0 1.6 0.00 0.15 0.15 87 1013.9
20260901192537 14 254 0.0 3.2 0.00 0.15 0.15 87 1013.8
20260901192035 15 264 0.0 3.2 0.00 0.15 0.15 87 1013.7
20260901191541 15 264 0.0 3.2 0.00 0.15 0.15 86 1013.7
20260901191034 15 264 0.0 3.2 0.00 0.15 0.15 86 1013.7
20260901190533 15 264 0.0 3.2 0.00 0.15 0.15 85 1013.7
20260901190037 15 264 0.0 3.2 0.00 0.15 0.15 85 1013.7
20260901185532 15 264 0.0 3.2 0.00 0.15 0.15 85 1013.6
20260901185031 15 267 0.0 3.2 0.00 0.15 0.15 84 1013.6
20260901184531 16 285 0.0 6.4 0.00 0.15 0.15 83 1013.5
20260901184033 16 285 0.0 6.4 0.00 0.15 0.15 83 1013.4
20260901183533 16 263 0.0 4.8 0.00 0.15 0.15 82 1013.4
20260901183055 16 267 1.6 4.8 0.00 0.15 0.15 82 1013.4
20260901182530 16 269 0.0 4.8 0.00 0.15 0.15 81 1013.3
20260901182030 16 166 0.0 12.9 0.00 0.15 0.15 81 1013.3
20260901181529 16 270 3.2 11.3 0.00 0.15 0.15 81 1013.3
20260901181028 16 287 3.2 11.3 0.00 0.15 0.15 80 1013.2
20260901180528 16 209 0.0 8.0 0.00 0.15 0.15 80 1013.2
20260901180028 16 312 3.2 8.0 0.00 0.15 0.15 79 1013.1
20260901175526 16 264 1.6 6.4 0.00 0.15 0.15 79 1013.1
20260901175027 16 148 1.6 6.4 0.00 0.15 0.15 79 1013.1
20260901174527 16 101 0.0 8.0 0.00 0.15 0.15 79 1013.0
20260901174027 16 269 1.6 8.0 0.00 0.15 0.15 79 1013.1
20260901173527 17 247 1.6 8.0 0.00 0.15 0.15 78 1013.1
20260901173028 17 163 1.6 11.3 0.00 0.15 0.15 78 1013.1
20260901172526 17 317 1.6 12.9 0.00 0.15 0.15 77 1013.0
20260901172026 17 287 3.2 12.9 0.00 0.15 0.15 77 1013.0
20260901171531 17 219 1.6 8.0 0.00 0.15 0.15 77 1013.1
20260901171029 17 84 1.6 8.0 0.00 0.15 0.15 76 1013.0
20260901170524 17 327 1.6 14.5 0.00 0.15 0.15 76 1012.9
20260901170039 17 209 1.6 14.5 0.00 0.15 0.15 75 1012.9
20260901165522 17 293 4.8 17.7 0.00 0.15 0.15 74 1012.8
20260901165022 17 338 3.2 17.7 0.00 0.15 0.15 74 1012.8
20260901164521 18 264 6.4 17.7 0.00 0.15 0.15 73 1012.7
20260901164020 18 115 3.2 17.7 0.00 0.15 0.15 72 1012.7
20260901163520 18 104 1.6 16.1 0.00 0.15 0.15 73 1012.6
20260901163027 18 310 3.2 16.1 0.03 0.15 0.15 72 1012.6
20260901162520 18 17 3.2 12.9 0.03 0.15 0.15 74 1012.5
20260901162024 18 272 3.2 12.9 0.03 0.15 0.15 74 1012.5
20260901161519 18 267 1.6 16.1 0.03 0.15 0.15 75 1012.5
20260901161019 18 263 3.2 19.3 0.03 0.15 0.15 73 1012.5
20260901160518 18 310 1.6 14.5 0.03 0.15 0.15 74 1012.4
20260901160017 18 236 3.2 14.5 0.03 0.15 0.15 74 1012.3
20260901155517 18 121 3.2 14.5 0.03 0.18 0.15 74 1012.3
20260901155017 18 309 0.0 14.5 0.03 0.18 0.15 75 1012.3
20260901154516 18 184 1.6 14.5 0.03 0.18 0.15 74 1012.3
20260901154021 18 270 3.2 11.3 0.03 0.18 0.15 73 1012.3
20260901153517 18 134 1.6 11.3 0.03 0.18 0.15 73 1012.2
20260901153015 19 182 3.2 11.3 0.00 0.15 0.15 72 1012.1
20260901152518 20 332 3.2 9.7 0.00 0.15 0.15 72 1012.1
20260901152018 20 281 3.2 8.0 0.00 0.15 0.15 71 1012.1
20260901151514 20 255 1.6 11.3 0.00 0.15 0.15 70 1012.0
20260901151015 20 203 1.6 11.3 0.00 0.15 0.15 71 1012.0
20260901150513 20 115 3.2 17.7 0.00 0.15 0.15 70 1012.0
20260901150014 20 273 1.6 14.5 0.00 0.15 0.15 71 1012.0
20260901145513 20 154 3.2 12.9 0.00 0.18 0.15 71 1011.9
20260901145012 20 257 3.2 14.5 0.00 0.18 0.15 72 1011.9
20260901144512 20 279 3.2 14.5 0.00 0.18 0.15 72 1011.9
20260901144015 20 263 3.2 14.5 0.03 0.18 0.15 71 1012.0
20260901143514 20 276 4.8 14.5 0.03 0.18 0.15 71 1011.9
20260901143013 20 83 1.6 12.9 0.03 0.18 0.15 71 1011.9
20260901142510 20 257 3.2 12.9 0.03 0.18 0.15 71 1011.9
20260901142010 20 206 1.6 17.7 0.03 0.18 0.15 70 1011.9
20260901141510 20 193 6.4 17.7 0.03 0.18 0.15 69 1011.8
20260901141013 20 291 1.6 11.3 0.03 0.18 0.15 69 1011.8
20260901140509 21 288 3.2 11.3 0.03 0.18 0.15 69 1011.8
20260901140011 21 107 3.2 11.3 0.03 0.18 0.15 69 1011.8
20260901135511 21 315 1.6 11.3 0.03 0.18 0.15 69 1011.7
20260901135009 21 217 3.2 11.3 0.03 0.18 0.15 69 1011.8
20260901134510 20 194 0.0 8.0 0.03 0.18 0.15 70 1011.8
20260901134007 21 59 3.2 11.3 0.00 0.15 0.13 69 1011.7
20260901133507 21 208 1.6 11.3 0.00 0.15 0.13 70 1011.7
20260901133007 21 51 0.0 8.0 0.00 0.15 0.13 69 1011.7
20260901132507 21 289 1.6 8.0 0.00 0.15 0.13 69 1011.7
20260901132009 21 298 3.2 11.3 0.00 0.15 0.13 68 1011.7
20260901131505 21 194 1.6 11.3 0.00 0.15 0.13 70 1011.7
20260901131009 20 205 1.6 9.7 0.00 0.15 0.13 70 1011.5
20260901130506 20 130 3.2 12.9 0.00 0.15 0.13 70 1011.6
20260901130007 20 316 4.8 12.9 0.00 0.15 0.13 69 1011.6
20260901125504 20 290 3.2 8.0 0.00 0.15 0.13 69 1011.5
20260901125004 21 289 3.2 11.3 0.00 0.15 0.13 69 1011.6
20260901124505 21 219 1.6 11.3 0.00 0.15 0.13 68 1011.5
20260901124003 21 50 1.6 8.0 0.00 0.15 0.13 70 1011.5
20260901123503 20 271 3.2 12.9 0.00 0.15 0.13 69 1011.5
20260901123003 20 275 1.6 14.5 0.00 0.15 0.13 69 1011.5
20260901122504 20 281 3.2 14.5 0.00 0.15 0.13 69 1011.6
20260901122002 21 86 3.2 14.5 0.03 0.15 0.13 69 1011.6
20260901121501 21 307 3.2 14.5 0.03 0.15 0.13 68 1011.5
20260901121003 21 167 3.2 12.9 0.03 0.15 0.13 66 1011.5
20260901120601 21 250 3.2 12.9 0.03 0.15 0.13 68 1011.5
20260901120503 21 247 1.6 12.9 0.03 0.15 0.13 69 1011.5
20260901120108 21 167 4.8 14.5 0.03 0.15 0.13 67 1011.5
20260901115557 21 271 1.6 9.7 0.03 0.18 0.13 72 1011.5
20260901115101 20 301 4.8 11.3 0.03 0.18 0.13 70 1011.5
20260901114601 20 293 1.6 11.3 0.03 0.18 0.13 73 1011.5
20260901114057 20 256 3.2 11.3 0.03 0.18 0.13 73 1011.5
20260901113554 20 209 4.8 11.3 0.03 0.18 0.13 74 1011.5
20260901113052 20 248 3.2 11.3 0.03 0.18 0.13 73 1011.6
20260901112550 20 310 1.6 12.9 0.03 0.18 0.13 77 1011.5
20260901112053 20 216 3.2 12.9 0.00 0.15 0.10 77 1011.6
20260901111556 19 215 4.8 9.7 0.00 0.15 0.10 79 1011.6
20260901111049 19 286 1.6 9.7 0.00 0.15 0.10 79 1011.6
20260901110548 19 276 1.6 11.3 0.00 0.15 0.10 78 1011.6
20260901110051 19 246 4.8 11.3 0.03 0.15 0.10 79 1011.5
20260901105548 19 190 4.8 9.7 0.03 0.18 0.10 78 1011.5
20260901105046 19 219 3.2 8.0 0.03 0.18 0.10 77 1011.4
20260901104546 19 178 3.2 8.0 0.03 0.18 0.10 79 1011.4
20260901104049 19 199 3.2 14.5 0.03 0.18 0.10 81 1011.3
20260901103544 18 318 3.2 14.5 0.03 0.18 0.10 80 1011.4
20260901103051 18 204 3.2 11.3 0.03 0.18 0.10 80 1011.3
20260901102542 18 232 4.8 11.3 0.03 0.18 0.10 80 1011.3
20260901102042 18 121 3.2 14.5 0.03 0.18 0.10 80 1011.4
20260901101541 18 288 4.8 12.9 0.03 0.18 0.10 80 1011.3
20260901101041 18 195 3.2 11.3 0.03 0.18 0.10 81 1011.3
20260901100541 18 180 4.8 19.3 0.00 0.15 0.08 80 1011.2
20260901100039 18 274 6.4 19.3 0.00 0.15 0.08 80 1011.2
20260901095538 18 313 4.8 14.5 0.00 0.15 0.08 82 1011.2
20260901095036 18 280 4.8 11.3 0.00 0.15 0.08 82 1011.1
20260901094536 18 206 3.2 11.3 0.00 0.15 0.08 84 1011.1
20260901094035 18 161 3.2 14.5 0.00 0.15 0.08 83 1011.2
20260901093633 18 267 4.8 14.5 0.00 0.15 0.08 83 1011.1
20260901093033 18 201 4.8 17.7 0.00 0.15 0.08 83 1011.1
20260901092533 17 228 6.4 17.7 0.00 0.15 0.08 84 1011.2
20260901092032 17 286 4.8 16.1 0.00 0.15 0.08 85 1011.1
20260901091529 17 284 4.8 16.1 0.00 0.15 0.08 85 1011.2
20260901091028 17 166 1.6 16.1 0.00 0.15 0.08 85 1011.1
20260901090528 17 274 4.8 16.1 0.00 0.15 0.08 87 1011.1
20260901090026 17 278 1.6 17.7 0.03 0.15 0.08 88 1010.9
20260901085524 16 281 1.6 17.7 0.03 0.18 0.08 89 1011.0
20260901085024 16 168 3.2 11.3 0.03 0.18 0.08 89 1010.9
20260901084523 16 268 3.2 14.5 0.03 0.18 0.08 90 1010.9
20260901084021 16 223 3.2 14.5 0.03 0.18 0.08 90 1010.9
20260901083522 16 215 1.6 9.7 0.03 0.18 0.08 90 1010.8
20260901083021 16 270 1.6 17.7 0.03 0.18 0.08 90 1010.8
20260901082520 17 275 4.8 17.7 0.03 0.18 0.08 90 1010.7
20260901082022 17 297 1.6 11.3 0.03 0.18 0.08 91 1010.6
20260901081518 17 325 3.2 9.7 0.03 0.18 0.08 91 1010.6
20260901081018 17 207 4.8 14.5 0.03 0.18 0.08 92 1010.5
20260901080517 17 273 3.2 9.7 0.03 0.18 0.08 94 1010.5
20260901080016 17 202 1.6 8.0 0.00 0.15 0.05 95 1010.4
20260901075515 16 277 1.6 8.0 0.00 0.18 0.05 96 1010.3
20260901075018 16 295 1.6 11.3 0.00 0.18 0.05 96 1010.3
20260901074511 16 198 3.2 11.3 0.00 0.18 0.05 97 1010.3
20260901074015 16 302 3.2 16.1 0.00 0.18 0.05 97 1010.2
20260901073511 15 300 6.4 16.1 0.00 0.18 0.05 97 1010.3
20260901073010 15 164 3.2 8.0 0.00 0.18 0.05 98 1010.3
20260901072510 16 223 3.2 6.4 0.00 0.18 0.05 98 1010.3
20260901072008 15 78 1.6 12.9 0.00 0.18 0.05 98 1010.2
20260901071508 15 279 4.8 12.9 0.03 0.18 0.05 98 1010.2
20260901071007 15 197 1.6 6.4 0.03 0.18 0.05 98 1010.1
20260901070506 15 202 1.6 11.3 0.03 0.18 0.05 98 1010.1
20260901070008 15 300 1.6 11.3 0.03 0.18 0.05 98 1010.0
20260901065506 15 311 1.6 8.0 0.03 0.18 0.05 98 1010.0
20260901065005 15 302 3.2 11.3 0.03 0.18 0.05 98 1009.9
20260901064504 15 178 1.6 11.3 0.03 0.18 0.05 98 1009.9
20260901064003 15 169 3.2 11.3 0.03 0.18 0.05 98 1010.0
20260901063502 15 236 4.8 11.3 0.03 0.18 0.05 98 1010.0
20260901063105 14 272 1.6 8.0 0.03 0.18 0.05 98 1009.9
20260901062600 14 165 1.6 8.0 0.03 0.18 0.05 98 1009.9
20260901062101 14 245 0.0 6.4 0.03 0.18 0.05 98 1009.9
20260901061557 14 103 1.6 6.4 0.00 0.15 0.05 98 1009.9
20260901061056 14 221 0.0 6.4 0.00 0.15 0.05 98 1009.8
20260901060555 14 291 1.6 9.7 0.00 0.15 0.05 98 1009.8
20260901060054 13 290 1.6 6.4 0.00 0.15 0.05 98 1009.7
20260901055553 13 271 0.0 6.4 0.00 0.18 0.05 98 1009.7
20260901055053 13 281 1.6 6.4 0.00 0.18 0.05 98 1009.7
20260901054554 13 244 1.6 6.4 0.00 0.18 0.05 98 1009.7
20260901054053 13 265 0.0 8.0 0.00 0.18 0.05 98 1009.7
20260901053551 13 264 1.6 8.0 0.00 0.18 0.05 98 1009.7
20260901053059 13 274 1.6 4.8 0.00 0.18 0.05 98 1009.7
20260901052549 13 300 0.0 6.4 0.00 0.18 0.05 98 1009.7
20260901052048 13 300 1.6 6.4 0.00 0.18 0.05 98 1009.6
20260901051548 13 269 1.6 4.8 0.00 0.18 0.05 98 1009.6
20260901051047 13 232 1.6 4.8 0.00 0.18 0.05 98 1009.6
20260901050549 13 292 0.0 6.4 0.00 0.18 0.05 98 1009.6
20260901050046 13 292 0.0 6.4 0.00 0.18 0.05 98 1009.6
20260901045545 13 302 1.6 8.0 0.00 0.20 0.05 98 1009.5
20260901045044 13 288 3.2 8.0 0.00 0.20 0.05 98 1009.4
20260901044551 13 212 0.0 8.0 0.00 0.20 0.05 98 1009.4
20260901044046 13 277 1.6 8.0 0.00 0.20 0.05 98 1009.4
20260901043543 13 317 1.6 6.4 0.00 0.20 0.05 98 1009.4
20260901043043 13 280 1.6 6.4 0.00 0.20 0.05 98 1009.3
20260901042542 13 303 1.6 6.4 0.00 0.20 0.05 98 1009.2
20260901042042 13 276 1.6 6.4 0.00 0.20 0.05 98 1009.2
20260901041601 13 309 0.0 8.0 0.00 0.20 0.05 98 1009.2
20260901041045 13 278 1.6 8.0 0.00 0.20 0.05 97 1009.1
20260901040540 13 315 1.6 11.3 0.00 0.20 0.05 97 1009.1
20260901040055 13 294 3.2 11.3 0.00 0.20 0.05 97 1009.1
20260901035543 13 287 3.2 11.3 0.00 0.20 0.05 97 1009.1
20260901035041 13 286 1.6 9.7 0.00 0.20 0.05 97 1009.1
20260901034539 13 273 1.6 9.7 0.00 0.20 0.05 97 1009.1
20260901034038 13 286 0.0 6.4 0.00 0.20 0.05 97 1009.1
20260901033542 13 287 1.6 6.4 0.00 0.20 0.05 97 1009.0
20260901033040 13 287 1.6 4.8 0.00 0.20 0.05 97 1008.9
20260901032538 13 266 0.0 6.4 0.00 0.20 0.05 97 1008.9
20260901032040 13 267 0.0 6.4 0.00 0.20 0.05 97 1008.9
20260901031535 13 179 0.0 6.4 0.03 0.20 0.05 97 1008.8
20260901031035 13 282 1.6 8.0 0.03 0.20 0.05 97 1008.8
20260901030537 13 219 1.6 8.0 0.03 0.20 0.05 97 1008.8
20260901030035 13 260 3.2 9.7 0.03 0.20 0.05 97 1008.8
20260901025534 13 304 0.0 6.4 0.03 0.23 0.05 97 1008.7
20260901025034 13 319 0.0 4.8 0.03 0.23 0.05 97 1008.7
20260901024534 13 182 1.6 8.0 0.03 0.23 0.05 97 1008.6
20260901024034 13 288 1.6 8.0 0.03 0.23 0.05 97 1008.6
20260901023533 13 282 1.6 6.4 0.03 0.23 0.05 97 1008.6
20260901023033 13 297 1.6 6.4 0.03 0.23 0.05 97 1008.6
20260901022533 13 288 1.6 11.3 0.03 0.23 0.05 97 1008.6
20260901022033 13 254 1.6 11.3 0.03 0.23 0.05 97 1008.7
20260901021535 13 285 3.2 8.0 0.00 0.23 0.03 97 1008.6
20260901021031 13 326 1.6 6.4 0.00 0.23 0.03 97 1008.5
20260901020532 13 188 0.0 11.3 0.00 0.23 0.03 97 1008.4
20260901020030 13 279 0.0 11.3 0.00 0.23 0.03 97 1008.4
20260901015530 13 219 1.6 6.4 0.00 0.23 0.03 97 1008.4
20260901015028 13 291 1.6 6.4 0.00 0.23 0.03 97 1008.3